Date,TemperatureHighF,TemperatureAvgF,TemperatureLowF,DewpointHighF,DewpointAvgF,DewpointLowF,HumidityHigh,HumidityAvg,HumidityLow,PressureMaxIn,PressureMinIn,WindSpeedMaxMPH,WindSpeedAvgMPH,GustSpeedMaxMPH,PrecipitationSumIn
2013-2-1,72.3,58.4,48.9,55.4,47.7,39.7,89,68,38,30.19,30.11,11,2,18,0.00
2013-2-2,66.9,60.0,53.4,55.8,49.4,44.3,80,68,50,30.21,30.11,9,3,17,0.00
2013-2-3,66.9,60.8,51.6,56.2,51.7,46.0,87,72,55,30.15,30.03,9,3,17,0.00
2013-2-4,62.8,53.3,46.9,53.2,49.1,42.8,95,86,69,30.13,30.01,7,2,11,0.00
2013-2-5,58.1,53.9,49.6,52.1,49.8,47.9,95,86,78,30.14,30.02,9,2,15,0.00
2013-2-6,65.8,57.2,49.3,50.7,48.3,45.6,87,73,56,30.14,30.02,7,2,11,0.00
2013-2-7,64.2,53.5,44.6,52.3,46.7,41.6,90,78,63,30.16,30.04,8,4,13,0.00
2013-2-8,57.2,51.4,43.7,49.0,42.2,38.9,88,71,56,30.04,29.93,18,7,32,0.21
2013-2-9,63.7,49.8,38.7,45.8,40.5,36.3,92,72,45,30.13,29.96,8,3,14,0.00
2013-2-10,64.9,51.4,42.3,45.9,41.4,35.2,84,70,47,30.14,30.05,9,4,17,0.00
2013-2-11,61.0,51.1,41.0,48.9,42.8,36.7,86,74,49,30.27,30.08,12,5,21,0.00
2013-2-12,64.2,50.8,39.9,48.8,38.5,29.2,75,63,36,30.37,30.26,8,4,14,0.00
2013-2-13,63.9,51.6,40.5,52.0,42.3,33.2,81,71,48,30.29,30.16,9,4,14,0.00
2013-2-14,46.4,45.1,43.9,40.9,39.5,38.1,82,81,79,30.20,30.15,4,4,9,0.00
2013-2-15,76.6,62.1,48.4,50.8,36.8,25.0,81,44,16,30.19,30.12,8,4,12,0.02
2013-2-16,77.9,64.3,52.7,48.0,27.4,16.2,52,27,10,30.15,30.00,9,3,12,0.00
2013-2-17,67.6,57.3,45.7,52.5,46.0,28.7,83,67,46,30.05,29.96,6,3,11,0.00
2013-2-18,66.6,57.1,53.1,49.2,46.6,43.5,79,69,51,30.09,29.99,8,3,12,0.00
2013-2-19,59.7,53.3,47.7,51.8,44.5,40.8,89,73,62,30.02,29.74,17,6,30,0.14
2013-2-20,60.1,52.9,46.8,43.2,37.8,29.4,72,57,40,30.03,29.73,24,8,42,0.01
2013-2-21,65.8,54.0,45.5,48.0,43.6,39.2,83,68,47,30.12,30.00,8,3,15,0.00
2013-2-22,66.0,52.6,40.6,50.3,42.8,35.3,85,70,52,30.23,30.12,9,4,15,0.00
2013-2-23,65.8,53.1,41.5,50.6,43.3,34.5,85,70,48,30.19,29.96,8,3,12,0.00
2013-2-24,71.8,55.4,43.7,50.1,40.9,9.6,90,64,10,30.23,30.00,9,4,25,0.00
2013-2-25,64.8,52.8,41.0,51.1,35.9,22.3,81,54,23,30.24,30.10,10,4,14,0.00
2013-2-26,64.0,53.0,39.9,51.2,41.7,30.5,82,66,52,30.13,30.01,9,4,15,0.00
2013-2-27,70.2,58.7,48.2,52.9,35.1,24.2,70,42,27,30.29,30.13,8,4,98,0.00
2013-2-28,54.0,48.8,46.2,30.9,26.8,23.8,49,42,35,30.31,30.25,8,5,15,0.00